Showing default

KEPLER-4 (ANTILLES), 46499

Orbit data source: Space-Track

KEPLER-4 (ANTILLES), 46499 is a payload satellite owned by Kepler Comms (CA) in SSO that was launched on Mon, 28 Sep 2020 UTC via a SOYUZ-2-1B launch vehicle from the Plesetsk Missile And Space Complex (PKMTR). Payloads include a variety of satellites, spacecraft, and rockets equipped with specific instruments for various scientific and technological missions. These include communications satellites like Starlink; space stations such as the ISS; scientific satellites like the Hubble; Earth observation satellites from companies like Planet Labs, Umbra, and HawkEye 360; GPS; miniature CubeSats for education and research; and military/defense satellites.

Loading next visibility...
KEPLER-4 (ANTILLES) details
Identifier
46499, 2020-068P
Orbit
SSO
Last TLE update15 hours ago
Origin
Flag of CAKepler Comms (CA)
ManufacturerKEPLER/UTIAS
MissionOperational Commercial Communications
Bus & MotorCUBESAT 6U, Unknown motor
Mass15 kg wet, 15 kg dry
Launch date (UTC)
2020-09-28 (4 years ago)
Launch vehicle
SOYUZ-2-1B
Launch site
Plesetsk Missile And Space Complex (PKMTR)
Object type
Payload
Rocket body
Debris
Shape & HBRBox + 2 Pan, Unknown HBR
Radar Cross Section0.109 m², Medium (>0.1 m² and < 1m²)

Expand to show TLE details & history

TLE from 15 hours ago
0 KEPLER-4 (ANTILLES)
1 46499U 20068P   24360.91415256  .00067618  00000-0  11822-2 0  9990
2 46499  97.8118 338.4492 0005747  30.9764 329.1824 15.50402348234193
Epoch: 2024-12-25T21:56Z
Definitive object data (Epoch: 2024-12-25T21:56:22.781Z)
Latitude-0.00003°
Longitude-85.54678°
Altitude415.317 km
Speed7.664 km/s
True Right ascension22h 33m 47s
True Declination0° 00' 00"
Sunlit
Object was in daylight at TLE epoch
Visualization TLE readout
Latitude-48.16929°
Longitude-76.08913°
Altitude433.142 km
Speed7.651 km/s
Apparent Right ascension23h 54m 47s
Apparent Declination-44° 28' 03"
Sunlit
Object is in daylight
Visualization observer readout
Local Sidereal Time12:34:50
Azimuth124.824° SE
Elevation-81.305°
Doppler factor1
Orbital elements
Apogee altitude416.397 km
Perigee altitude408.591 km
Semi-major axis6,790.631 km
Eccentricity0.0005747
Inclination97.8118°
RAAN338.4492°
Arg. of periapsis30.9764°
True anomaly329.14864°
Mean anomaly329.1824°
Eccentric anomaly329.16552°
Mean motion3.87863 °/min
BSTAR0.0011822
Orbital period92.82 mins
Loading maneuver chart data...
Loading historical data...
Loading historical data...
Loading historical data...
Loading historical data...
Loading historical data...
Loading historical data...
Loading historical data...

KEPLER-4 (ANTILLES) Visibility forecast

Observer location: undefined°, undefined

Span
Click to sort rows by Start time (UTC) header in descending order
Start Az.
Max El. time (UTC)
Max El. Az.
Max El.
End time (UTC)
End Az.
5 mins2024-12-26 22:51:12.205Z172.872° S2024-12-26 22:53:12.205Z194.743° SSW40.719°2024-12-26 22:56:12.205Z342.973° N
4 mins2024-12-27 11:41:12.205Z10.815° NNE2024-12-27 11:43:12.205Z200.325° SSW41.694°2024-12-27 11:45:12.205Z194.823° SSW
|